Flag for Dominican Republic Weather past 2 weeks in Punta Cana, Dominican Republic

Now
81 °F

Passing clouds.


Feels Like: 83 °F
Forecast: 75 / 83 °F
Wind: 14 mph from East

Location: Punta Cana

Current Time: Mar 4, 2015 at 12:07:18 PM

Latest Report: Mar 4, 2015 at 11:00 AM


Visibility: N/A

Pressure: 30.12 "Hg

Humidity: 66%

Dew point: 68 °F

Location of Punta CanaLocation

Historic Weather in Punta Cana — Graph

°F

Punta Cana temperature yesterday

Maximum temperature yesterday: 82 °F (at 11:00 AM)
Minimum temperature yesterday: 75 °F (at 6:00 AM)
Average temperature yesterday: 79 °F

Past Weeks' High & Low Weather Summary

 TemperatureHumidityPressure
High84 °F (Feb 18, 2:00 PM)100% (Feb 17, 10:00 PM)30.18 "Hg (Feb 17, 10:00 PM)
Low68 °F (Feb 18, 4:00 AM)55% (Mar 3, 4:00 PM)29.95 "Hg (Feb 19, 5:00 AM)
Average78 °F78%30.05 "Hg
* Reported Feb 17 11:00 AM — Mar 4 11:00 AM, Punta Cana, Weather by CustomWeather, © 2015

Note: Actual official high and low records may vary slightly from our data, if they occured in-between our weather recording intervals... More about our weather records

Advertising

Punta Cana weather history for previous 24 hours

 ConditionsComfort  
Time TempWeatherWind HumidityBarometerVisibility
11:00 AM
Wed, Mar 4
81 °FPassing clouds.14 mph66%30.12 "HgN/A
10:00 AM79 °FPartly sunny.13 mph74%30.12 "HgN/A
9:00 AM73 °FScattered clouds.8 mph89%30.09 "HgN/A
8:00 AM73 °FSprinkles. Broken clouds.16 mph89%30.09 "HgN/A
7:00 AM75 °FScattered clouds.12 mph83%30.04 "HgN/A
6:00 AM77 °FPassing clouds.18 mph69%30.04 "HgN/A
5:00 AM75 °FPassing clouds.18 mph69%30.01 "HgN/A
4:00 AM75 °FPassing clouds.20 mph69%30.01 "HgN/A
3:00 AM77 °FPassing clouds.20 mph65%30.04 "HgN/A
2:00 AM77 °FPassing clouds.20 mph65%30.04 "HgN/A
1:00 AM77 °FPassing clouds.18 mph65%30.07 "HgN/A
12:00 AM77 °FPassing clouds.17 mph65%30.07 "HgN/A
11:00 PM
Tue, Mar 3
77 °FPassing clouds.12 mph65%30.09 "HgN/A
10:00 PM77 °FPassing clouds.12 mph69%30.07 "HgN/A
9:00 PM77 °FPassing clouds.12 mph69%30.07 "HgN/A
8:00 PM77 °FPassing clouds.17 mph69%30.04 "HgN/A
7:00 PM77 °FPassing clouds.17 mph69%30.04 "HgN/A
6:00 PM79 °FPassing clouds.17 mph65%30.04 "HgN/A
5:00 PM81 °FPassing clouds.16 mph62%30.01 "HgN/A
4:00 PM82 °FPassing clouds.12 mph55%30.01 "HgN/A
3:00 PM82 °FPassing clouds.12 mph62%30.04 "HgN/A
2:00 PM82 °FPassing clouds.14 mph62%30.07 "HgN/A
1:00 PM82 °FPassing clouds.14 mph62%30.09 "HgN/A
12:00 PM82 °FPassing clouds.12 mph62%30.09 "HgN/A
Weather by CustomWeather, © 2015

See weather overviewHow to use our weather pages